TimeCST,TemperatureF,Dew PointF,Humidity,Sea Level PressureIn,VisibilityMPH,Wind Direction,Wind SpeedMPH,Gust SpeedMPH,PrecipitationIn,Events,Conditions,WindDirDegrees,DateUTC
12:10 AM,14.0,8.6,79,30.04,10.0,NW,13.8,-,N/A,,Scattered Clouds,310,2012-12-31 06:10:00
12:19 AM,14.0,8.6,79,30.04,10.0,NW,11.5,-,N/A,,Mostly Cloudy,320,2012-12-31 06:19:00
12:53 AM,15.1,10.0,80,30.12,10.0,NW,8.1,-,N/A,,Overcast,320,2012-12-31 06:53:00
2:53 AM,19.9,16.0,85,30.17,8.0,NNW,15.0,-,N/A,,Overcast,340,2012-12-31 08:53:00
3:36 AM,19.4,15.8,86,30.13,8.0,North,13.8,-,N/A,,Overcast,350,2012-12-31 09:36:00
3:53 AM,19.9,14.0,78,30.17,9.0,North,19.6,25.3,N/A,,Overcast,350,2012-12-31 09:53:00
4:53 AM,19.0,14.0,81,30.19,10.0,NNW,23.0,-,N/A,,Overcast,340,2012-12-31 10:53:00
5:53 AM,19.0,14.0,81,30.22,9.0,NNW,12.7,-,N/A,,Overcast,340,2012-12-31 11:53:00
6:31 AM,19.4,12.2,74,30.14,10.0,NNW,16.1,-,N/A,,Overcast,340,2012-12-31 12:31:00
6:53 AM,19.0,12.9,77,30.22,10.0,NNW,11.5,-,N/A,,Overcast,340,2012-12-31 12:53:00
7:27 AM,17.6,12.2,79,30.14,10.0,NNW,11.5,-,N/A,,Scattered Clouds,340,2012-12-31 13:27:00
7:53 AM,17.1,10.9,77,30.22,10.0,NNW,8.1,-,N/A,,Mostly Cloudy,330,2012-12-31 13:53:00
8:53 AM,18.0,10.9,74,30.25,10.0,NNW,5.8,-,N/A,,Overcast,340,2012-12-31 14:53:00
9:53 AM,17.1,10.0,74,30.26,8.0,North,15.0,-,0.00,,Overcast,360,2012-12-31 15:53:00
10:14 AM,17.6,10.4,73,30.19,6.0,North,13.8,-,0.00,Snow,Light Snow,10,2012-12-31 16:14:00
10:53 AM,16.0,8.1,71,30.27,10.0,North,11.5,-,0.00,,Mostly Cloudy,360,2012-12-31 16:53:00
11:05 AM,15.8,8.6,73,30.19,10.0,North,10.4,-,N/A,,Scattered Clouds,350,2012-12-31 17:05:00
11:34 AM,15.8,8.6,73,30.19,9.0,North,10.4,-,N/A,,Mostly Cloudy,10,2012-12-31 17:34:00
11:53 AM,16.0,7.0,68,30.27,10.0,North,11.5,-,N/A,,Mostly Cloudy,360,2012-12-31 17:53:00
12:00 PM,15.8,8.6,73,30.19,10.0,North,12.7,-,N/A,,Scattered Clouds,350,2012-12-31 18:00:00
12:53 PM,15.1,6.1,68,30.26,10.0,North,10.4,-,N/A,,Partly Cloudy,360,2012-12-31 18:53:00
1:09 PM,15.8,6.8,68,30.18,10.0,North,13.8,-,N/A,,Mostly Cloudy,360,2012-12-31 19:09:00
1:53 PM,14.0,5.0,67,30.26,7.0,North,11.5,-,N/A,,Mostly Cloudy,350,2012-12-31 19:53:00
2:41 PM,12.2,5.0,73,30.17,10.0,North,10.4,-,0.00,,Scattered Clouds,360,2012-12-31 20:41:00
2:48 PM,12.2,5.0,73,30.17,10.0,North,10.4,-,0.00,,Mostly Cloudy,360,2012-12-31 20:48:00
2:53 PM,12.9,5.0,71,30.25,10.0,North,12.7,-,0.00,,Scattered Clouds,350,2012-12-31 20:53:00
3:53 PM,10.0,1.9,70,30.25,10.0,North,13.8,-,N/A,,Clear,350,2012-12-31 21:53:00
5:53 PM,5.0,-2.0,73,30.28,10.0,North,5.8,-,N/A,,Clear,350,2012-12-31 23:53:00
6:53 PM,3.9,-2.9,73,30.28,10.0,North,6.9,-,N/A,,Clear,350,2013-01-01 00:53:00
7:53 PM,3.0,-5.1,69,30.30,10.0,North,5.8,-,N/A,,Clear,350,2013-01-01 01:53:00
8:53 PM,1.0,-6.0,72,30.30,10.0,NNW,4.6,-,N/A,,Clear,340,2013-01-01 02:53:00
9:53 PM,-2.0,-7.1,79,30.31,10.0,NNW,8.1,-,N/A,,Clear,330,2013-01-01 03:53:00
10:53 PM,-6.0,-11.0,79,30.34,10.0,Calm,Calm,-,N/A,,Clear,0,2013-01-01 04:53:00